Location: A�t Bou Chrif
(32.7193°N, 5.2385°W)
Time: 00:14:48
(UTC+00:00)

Meteor 2-20 Rocket - Pass Details

Date: 08 August 2020
Orbit: 940 x 960 km, 82.5° (Epoch: 18 September)

Event Time Altitude Azimuth Distance (km) Brightness Sun altitude
Rises 21:35:46 0° 355° (N) 3,645 8.2 -26.6°
Reaches altitude 10° 21:38:18 10° 357° (N) 2,694 7.4 -27.0°
Maximum altitude 21:44:28 77° 83° (E) 984 4.3 -27.9°
Enters shadow 21:44:37 76° 99° (E) 985 4.3 -27.9°
